This is the latest recevied weather packets stored in our database for station/object KI4MRC. If no packets are shown the sender has not sent any weather packets the latest 10 day(s).
| Time | Temp. | Humidity | Pressure | Rain* | Wind** | Luminosity | Snow |
|---|---|---|---|---|---|---|---|
| 1778095529 | 30.56° C | 51% | 1016 hPa | 0 mm | - | 125 W/m² | - |
| 1778095225 | 30.56° C | 51% | 1015.9 hPa | 0 mm | - | 202 W/m² | - |
| 1778094922 | 31.11° C | 49% | 1016 hPa | 0 mm | - | 212 W/m² | - |
| 1778094618 | 31.11° C | 51% | 1016 hPa | 0 mm | - | 230 W/m² | - |
| 1778094316 | 31.11° C | 50% | 1016.1 hPa | 0 mm | - | 309 W/m² | - |
| 1778094013 | 31.11° C | 50% | 1016.2 hPa | 0 mm | - | 651 W/m² | - |
| 1778093710 | 31.11° C | 51% | 1016.4 hPa | 0 mm | - | 743 W/m² | - |
| 1778093406 | 31.11° C | 50% | 1016.4 hPa | 0 mm | - | 677 W/m² | - |
| 1778093103 | 31.67° C | 49% | 1016.4 hPa | 0 mm | - | 688 W/m² | - |
| 1778092801 | 31.67° C | 48% | 1016.4 hPa | 0 mm | - | 775 W/m² | - |
| 1778092496 | 31.67° C | 47% | 1016.6 hPa | 0 mm | - | 823 W/m² | - |
| 1778092193 | 31.67° C | 51% | 1016.6 hPa | 0 mm | - | 971 W/m² | - |
| 1778091890 | 31.67° C | 47% | 1016.5 hPa | 0 mm | - | 981 W/m² | - |
| 1778091587 | 31.11° C | 52% | 1016.6 hPa | 0 mm | - | 910 W/m² | - |
| 1778091285 | 31.11° C | 47% | 1016.6 hPa | 0 mm | - | 976 W/m² | - |
| 1778090982 | 31.11° C | 50% | 1016.6 hPa | 0 mm | - | 883 W/m² | - |
| 1778090678 | 31.11° C | 51% | 1016.7 hPa | 0 mm | - | 916 W/m² | - |
| 1778090375 | 31.67° C | 53% | 1016.6 hPa | 0 mm | - | 969 W/m² | - |
| 1778090072 | 31.67° C | 52% | 1016.6 hPa | 0 mm | - | 937 W/m² | - |
| 1778089769 | 31.67° C | 48% | 1016.9 hPa | 0 mm | - | 1029 W/m² | - |
| 1778089467 | 31.67° C | 50% | 1016.8 hPa | 0 mm | - | 1038 W/m² | - |
| 1778089163 | 31.11° C | 53% | 1016.9 hPa | 0 mm | - | 1046 W/m² | - |
| 1778088860 | 31.11° C | 53% | 1016.9 hPa | 0 mm | - | 1040 W/m² | - |
| 1778088557 | 31.11° C | 55% | 1016.9 hPa | 0 mm | - | 1045 W/m² | - |
| 1778088254 | 31.11° C | 55% | 1016.8 hPa | 0 mm | - | 1008 W/m² | - |
* Rain latest hour (hover to see other rain measurements)
** Current wind speed in m/s (hover to see current wind gust speed)